User: anonymous   Login
Location: Long Point Provincial Park
(42.5794°N, 80.4103°W)
Time: 00:44:52
(UTC-05:00)
Language:

Iridium 19 - Orbit

View from above orbital plane
View from above orbital plane
View from above satellite
View from above satellite

Ground track
Ground track

The orbit data is extracted from the following two-line orbital elements,

1 24965U 97056A   15026.31833630  .00000340  00000-0  11427-3 0  1058
2 24965 086.3997 323.5485 0002164 098.6535 261.4906 14.34217743907447
Epoch (UTC): 26 January 2015 07:38:24
Eccentricity: 0.0002164
inclination: 86.3997°
perigee height: 776 km
apogee height: 779 km
right ascension of ascending node: 323.5485°
argument of perigee: 98.6535°
revolutions per day: 14.34217743
mean anomaly at epoch: 261.4906°
orbit number at epoch: 90744

The dashed part of the orbit path shows where the satellite is in the earth's shadow,  

DLR